Aberdeen, SD

4:46 AM CDT on September 26, 2017 (GMT -0500)
Aberdeen Regional

Weather History for KABR - January, 2014

Change the Weather History Date:

Thursday, January 30, 2014

  Actual Average Record
Temperature  
Mean Temperature 1 °F 13 °F  
Max Temperature 16 °F 24 °F 55 °F (1931)
Min Temperature -15 °F 2 °F -32 °F (1916)
Degree Days  
Heating Degree Days 64 52  
Month to date heating degree days 1668 1586  
Since 1 July heating degree days 5464 5077  
Cooling Degree Days 0 0  
Month to date cooling degree days 0 0  
Year to date cooling degree days 0 0  
Moisture  
Dew Point 1 °F    
Average Humidity 81    
Maximum Humidity 92    
Minimum Humidity 69    
Precipitation  
Precipitation 0.03 in 0.02 in 0.50 in (1929)
Month to date precipitation 0.28 0.46  
Year to date precipitation 0.28 0.46  
Snow  
Snow 2.10 in 0.10 in 5.00 in (1929)
Month to date snowfall 7.4 6.2  
Since 1 July snowfall 22.9 20.8  
Snow Depth 3.00 in    
Sea Level Pressure  
Sea Level Pressure 29.83 in    
Wind  
Wind Speed 14 mph (North)    
Max Wind Speed 25 mph    
Max Gust Speed 30 mph    
Visibility 7 miles    
Events Snow    
T = Trace of Precipitation, MM = Missing Value Source: NWS Daily Summary

Daily Weather History Graph

Daily Weather History Graph

Search for Another Location

Airport or City:

Trip Planner

Search our weather history database for the weather conditions in past years. The results will help you decide how hot, cold, wet, or windy it might be!

Date:

Astronomy

Jan. 30, 2014 Rise Set
Actual Time 7:56 AM CST 5:37 PM CST
Civil Twilight 7:25 AM CST 6:09 PM CST
Nautical Twilight 6:49 AM CST 6:45 PM CST
Astronomical Twilight 6:14 AM CST 7:19 PM CST
Moon 7:21 AM CST (1/30) 5:54 PM CST (1/30)
Length of Visible Light 10h 44m
Length of Day
9h 40m
Waning Crescent, 0% of the Moon is Illuminated
Jan 30
Waning Crescent
Jan 30
New
Feb 6
First Quarter
Feb 14
Full
Feb 22
Last Quarter

Hourly Weather History & Observations

Time (CST) Temp. Windchill Dew Point Humidity Pressure Visibility Wind Dir Wind Speed Gust Speed Precip Events Conditions
12:53 AM 15.1 °F -0.1 °F 9.0 °F 77% 29.57 in 10.0 mi NE 15.0 mph - N/A   Overcast
1:50 AM 14.0 °F -2.0 °F 10.4 °F 86% 29.50 in 2.5 mi NE 16.1 mph - 0.00 in Snow Light Snow
1:53 AM 14.0 °F -2.5 °F 10.0 °F 84% 29.56 in 2.5 mi NE 17.3 mph - 0.00 in Snow Light Snow
2:01 AM 14.0 °F -2.5 °F 10.0 °F 84% 29.50 in 1.8 mi NE 17.3 mph - 0.00 in Snow Light Snow
2:14 AM 14.0 °F -3.4 °F 10.0 °F 84% 29.50 in 1.2 mi NNE 19.6 mph - 0.00 in Snow Light Snow
2:53 AM 14.0 °F -3.9 °F 10.9 °F 88% 29.57 in 1.0 mi NNE 20.7 mph - 0.02 in Snow Light Snow
3:10 AM 14.0 °F -3.0 °F 10.0 °F 84% 29.52 in 1.2 mi NNE 18.4 mph 29.9 mph 0.00 in Snow Light Snow
3:46 AM 12.9 °F -4.4 °F 10.0 °F 88% 29.54 in 1.8 mi NNE 18.4 mph - 0.01 in Snow Light Snow
3:53 AM 12.9 °F -5.7 °F 10.0 °F 88% 29.60 in 2.5 mi North 21.9 mph - 0.01 in Snow Light Snow
4:51 AM 12.2 °F -4.3 °F 10.4 °F 92% 29.60 in 1.8 mi North 16.1 mph - 0.00 in Snow Light Snow
4:53 AM 12.9 °F -3.9 °F 10.0 °F 88% 29.66 in 1.8 mi North 17.3 mph - 0.00 in Snow Light Snow
5:10 AM 12.9 °F -4.4 °F 9.0 °F 84% 29.61 in 1.2 mi North 18.4 mph - 0.00 in Snow Light Snow
5:19 AM 12.9 °F -3.9 °F 9.0 °F 84% 29.62 in 1.5 mi North 17.3 mph - 0.00 in Snow Light Snow
5:53 AM 10.9 °F -7.9 °F 8.1 °F 88% 29.72 in 2.0 mi North 20.7 mph - 0.00 in Snow Light Snow
6:05 AM 10.0 °F -8.6 °F 6.1 °F 84% 29.67 in 5.0 mi North 19.6 mph - 0.00 in Snow Light Snow
6:39 AM 9.0 °F -9.0 °F 6.1 °F 88% 29.70 in 2.0 mi North 17.3 mph - 0.00 in Snow Light Snow
6:50 AM 8.6 °F -10.5 °F 5.0 °F 85% 29.72 in 2.0 mi North 19.6 mph - 0.00 in Snow Light Snow
6:53 AM 9.0 °F -10.5 °F 5.0 °F 84% 29.79 in 2.5 mi North 20.7 mph - 0.00 in Snow Light Snow
7:11 AM 8.1 °F -10.7 °F 3.9 °F 83% 29.73 in 3.0 mi North 18.4 mph - 0.00 in Snow Light Snow
7:36 AM 7.0 °F -11.6 °F 1.9 °F 80% 29.76 in 8.0 mi North 17.3 mph - 0.00 in   Overcast
7:53 AM 6.1 °F -13.3 °F 1.9 °F 83% 29.85 in 9.0 mi North 18.4 mph - 0.00 in   Overcast
8:04 AM 5.0 °F -14.2 °F 1.0 °F 84% 29.77 in 5.0 mi North 17.3 mph - 0.00 in Snow Light Snow
8:16 AM 5.0 °F -14.2 °F -0.0 °F 80% 29.79 in 10.0 mi North 17.3 mph - 0.00 in   Overcast
8:26 AM 5.0 °F -14.2 °F -0.9 °F 76% 29.80 in 10.0 mi North 17.3 mph - 0.00 in   Overcast
8:35 AM 3.9 °F -14.3 °F -0.9 °F 80% 29.81 in 10.0 mi North 15.0 mph - 0.00 in   Overcast
8:45 AM 3.9 °F -11.3 °F -0.0 °F 84% 29.81 in 10.0 mi North 10.4 mph - 0.00 in   Overcast
8:53 AM 3.9 °F -12.2 °F -0.9 °F 80% 29.90 in 10.0 mi North 11.5 mph - 0.00 in   Overcast
9:18 AM 5.0 °F -12.3 °F -0.0 °F 80% 29.83 in 6.0 mi North 13.8 mph - N/A   Haze
9:34 AM 5.0 °F -12.3 °F -0.9 °F 76% 29.84 in 9.0 mi North 13.8 mph - N/A   Overcast
9:43 AM 3.9 °F -15.0 °F -0.9 °F 80% 29.85 in 10.0 mi North 16.1 mph - N/A   Overcast
9:53 AM 3.9 °F -14.3 °F -2.0 °F 76% 29.95 in 9.0 mi North 15.0 mph - N/A   Overcast
10:28 AM 3.9 °F -15.0 °F -2.0 °F 76% 29.88 in 7.0 mi NNW 16.1 mph - N/A   Overcast
10:39 AM 3.9 °F -15.0 °F -2.0 °F 76% 29.88 in 10.0 mi NNW 16.1 mph - N/A   Overcast
10:48 AM 3.2 °F -15.9 °F -2.2 °F 78% 29.88 in 10.0 mi NNW 16.1 mph - N/A   Overcast
10:53 AM 3.9 °F -14.3 °F -2.0 °F 76% 29.97 in 10.0 mi North 15.0 mph - N/A   Overcast
11:53 AM 5.0 °F -14.2 °F -2.0 °F 73% 29.99 in 10.0 mi NNW 17.3 mph - N/A   Unknown
12:53 PM 6.1 °F -11.6 °F -2.0 °F 69% 29.99 in 10.0 mi NW 15.0 mph - N/A   Mostly Cloudy
1:53 PM 5.0 °F -15.2 °F -2.9 °F 70% 30.00 in 10.0 mi NNW 19.6 mph - N/A   Clear
2:53 PM 5.0 °F -14.2 °F -2.9 °F 70% 30.01 in 10.0 mi NNW 17.3 mph - N/A   Clear
3:53 PM 5.0 °F -13.0 °F -2.9 °F 70% 30.04 in 10.0 mi NNW 15.0 mph - N/A   Clear
4:53 PM 3.9 °F -13.0 °F -4.0 °F 70% 30.05 in 10.0 mi NW 12.7 mph - N/A   Partly Cloudy
5:23 PM 3.9 °F -10.4 °F -4.0 °F 70% 29.97 in 10.0 mi NNW 9.2 mph - N/A   Mostly Cloudy
5:53 PM 1.0 °F -8.7 °F -5.1 °F 75% 30.08 in 10.0 mi NW 4.6 mph - N/A   Partly Cloudy
6:53 PM -0.9 °F -16.4 °F -6.0 °F 79% 30.10 in 10.0 mi NNW 9.2 mph - N/A   Clear
7:53 PM -0.9 °F -11.0 °F -7.1 °F 75% 30.13 in 10.0 mi NNW 4.6 mph - N/A   Clear
8:53 PM -4.0 °F - -9.0 °F 79% 30.14 in 10.0 mi Calm Calm - N/A   Clear
9:53 PM -11.9 °F -21.5 °F -16.1 °F 82% 30.17 in 10.0 mi West 3.5 mph - N/A   Clear
10:53 PM -14.1 °F -28.3 °F -18.0 °F 82% 30.18 in 10.0 mi SSW 5.8 mph - N/A   Clear
11:53 PM -14.1 °F -31.3 °F -17.0 °F 87% 30.18 in 10.0 mi SW 8.1 mph - N/A   Clear